Location: Unspecified
(0.0000°N, 0.0000°E)
Time: 21:06:25
(UTC+00:00)

SRMSAT - Visible Passes

Search period start: 26 June 2019 00:00
Search period end: 06 July 2019 00:00
Orbit: 848 x 866 km, 20.0° (Epoch: 25 June)

Date Brightness Start Highest point End Pass type
(mag) Time Alt. Az. Time Alt. Az. Time Alt. Az.
26 Jun ? 03:02:09 15° ESE 03:02:09 15° ESE 03:03:14 10° E visible
26 Jun ? 04:44:08 30° WSW 04:47:12 89° SSE 04:53:11 10° ENE visible
26 Jun ? 19:20:27 10° WSW 19:24:52 21° SSW 19:27:05 17° SSE visible
27 Jun ? 02:50:01 12° E 02:50:01 12° E 02:50:28 10° E visible
27 Jun ? 04:32:00 40° WSW 04:34:15 80° NNW 04:40:13 10° ENE visible
27 Jun ? 19:07:51 10° WSW 19:11:58 19° SSW 19:14:59 13° SSE visible
28 Jun ? 04:19:52 51° W 04:21:18 70° NNW 04:27:14 10° ENE visible
28 Jun ? 18:55:16 10° SW 18:59:06 17° SSW 19:02:52 10° SSE visible
29 Jun ? 04:07:43 57° NW 04:08:21 61° NNW 04:14:13 10° ENE visible
29 Jun ? 18:42:44 10° SW 18:46:15 16° SSW 18:49:45 10° SSE visible
30 Jun ? 03:55:33 53° NNW 03:55:33 53° NNW 04:01:11 10° NE visible
30 Jun ? 18:30:13 10° SW 18:33:24 15° SSW 18:36:35 10° SSE visible
01 Jul ? 03:43:21 43° N 03:43:21 43° N 03:48:07 10° NE visible
01 Jul ? 05:27:48 10° WNW 05:31:57 19° NNW 05:36:08 10° NNE visible
02 Jul ? 03:31:09 33° NNE 03:31:09 33° NNE 03:35:03 10° NE visible
02 Jul ? 05:15:14 10° NW 05:19:05 18° NNW 05:22:57 10° NNE visible
03 Jul ? 03:18:56 26° NNE 03:18:56 26° NNE 03:21:58 10° NE visible
03 Jul ? 05:02:43 10° NW 05:06:14 16° NNW 05:09:45 10° NNE visible
04 Jul ? 03:06:42 20° NNE 03:06:42 20° NNE 03:08:52 10° NE visible
04 Jul ? 04:50:12 10° NW 04:53:23 15° NNW 04:56:33 10° NNE visible
04 Jul ? 19:31:35 10° S 19:32:24 10° S 19:32:24 10° S visible
05 Jul ? 02:54:28 15° NNE 02:54:28 15° NNE 02:55:44 10° NE visible
05 Jul ? 04:37:45 10° NW 04:40:32 13° N 04:43:20 10° NNE visible
05 Jul ? 19:18:14 10° S 19:19:41 11° S 19:20:24 11° SSE visible
